Home Stats Input

Input Rank List



 
Order by:
Rank User Keys Clicks Last Pulse
246366 Unknown AJ 0 9 2012-07-19 07:45:53
246367 Unknown Sexyreece 0 3 2012-07-19 07:46:08
246368 Unknown swordsman99k 0 21 2012-07-19 07:51:01
246369 Unknown folder 0 46 2012-07-19 07:54:18
246370 Unknown Polywoly 0 29 2012-07-19 07:51:47
246371 Unknown capncrap 0 7 2012-07-19 07:54:06
246372 Unknown Erick 0 28 2012-07-19 07:55:45
246373 Unknown Rashiksama 0 14 2012-07-19 07:55:50
246374 Unknown ninja_Gabe 0 8 2012-07-19 07:56:54
246375 Unknown MiniGunMan23 0 3 2012-07-19 08:01:47
246376 Unknown THATGUYIKNOW 0 11 2012-07-19 08:09:45
246377 Unknown ExtraCrispy 0 82 2012-07-19 08:14:16
246378 Unknown benny_vegan 0 7 2012-07-19 08:13:58
246379 Unknown frogking3011 0 12 2012-07-19 08:15:20
246380 Unknown Smint 0 22 2012-07-19 08:16:20
246381 Unknown cryptowolf 0 24 2012-07-19 08:16:45
246382 Unknown bigwhite 0 3 2012-07-19 08:18:40
246383 Unknown mojobojo 0 6 2012-07-19 08:19:15
246384 Slovakia epc 0 9 2012-07-19 08:19:47
246385 Unknown KineticMagnetic 0 17 2012-07-19 08:24:20
246386 Unknown athrunzala1117 0 3 2012-07-19 08:24:28
246387 Unknown mastashana 0 3 2012-07-19 08:24:35
246388 Unknown yogohan44 0 122 2012-07-19 08:28:10
246389 Unknown trgttysfh 0 18 2012-07-19 08:25:30
246390 Unknown Fellmaris 0 30 2012-07-19 08:27:36
246391 Unknown sk1ger 0 30 2012-07-19 08:28:01
246392 Unknown Wolfgang12345 0 4 2012-07-19 08:28:14
246393 Unknown king-jj 0 33 2012-07-19 08:40:17
246394 Sweden mongelo 0 8 2012-07-19 08:31:04
246395 Unknown ibejshea 0 7 2012-07-19 08:33:27
246396 Unknown laharl219 0 23 2012-07-19 08:39:39
246397 Unknown tnott 0 4 2012-07-19 08:44:26
246398 Unknown whatmypulse 0 3 2012-07-19 08:39:30
246399 Unknown mpg1995 0 11 2012-07-19 08:40:44
246400 Unknown Shawn72724 0 7 2012-07-19 08:45:12
← Previous 1 ... 7037 7038 7039 7040 7041 7042 7043 ... 7210 Next →